Wind_Speed
8 8 8 8 8 8 7 9 10 10 9 9 8 8 8 9 9 9 9 8 8 8 7 8 8 7 7 6 6 6 5 5 4 4 4 4 4 5 5 5 5 5 5
8 7 8 8 8 8 8 9 9 10 10 9 9 9 9 8 8 9 9 9 8 8 8 8 8 8 7 7 7 6 6 6 5 5 4 4 5 6 6 6 6 5 5
8 8 8 8 8 8 8 9 9 9 9 9 9 9 9 9 9 9 9 10 9 9 8 8 8 8 8 7 7 6 6 6 6 6 6 5 6 6 6 6 6 6 7
8 8 8 8 8 8 8 8 9 9 9 10 10 9 9 9 9 10 10 10 10 10 9 8 8 9 8 7 7 7 7 7 7 6 6 6 6 5 5 6 6 7 7
8 8 8 8 8 8 8 9 9 9 9 9 10 10 10 10 10 11 10 10 11 12 11 9 8 8 8 8 8 7 8 7 7 7 6 7 7 6 6 7 7 7 8
8 8 8 8 8 9 9 10 9 9 9 10 11 10 10 11 11 11 11 11 11 12 12 10 9 8 8 9 8 7 8 7 7 7 7 7 7 7 7 7 8 8 8
8 8 8 9 9 9 10 10 10 9 10 11 11 11 11 11 11 11 10 11 12 12 11 11 10 9 9 8 8 8 8 8 8 7 7 8 8 8 8 8 8 9 9
9 9 9 9 9 10 10 10 10 10 11 11 11 12 12 11 11 11 11 11 12 12 12 11 11 10 10 10 9 9 8 8 8 8 9 9 9 9 9 9 9 10 10
11 10 10 10 10 11 11 11 11 11 11 11 12 12 12 12 12 12 12 12 12 12 12 12 11 11 11 10 9 8 8 9 9 9 10 10 10 10 10 10 11 11 11
11 11 11 11 11 12 12 12 12 12 12 12 13 13 13 13 13 13 13 13 13 14 14 14 13 12 12 11 10 9 9 10 10 10 10 10 10 11 11 11 12 12 12
13 13 13 12 12 12 13 13 13 13 13 14 14 14 13 13 13 14 14 14 14 14 15 15 14 13 12 11 10 10 10 10 10 10 11 11 11 12 12 12 12 12 13
15 14 14 14 13 13 13 13 14 14 14 15 15 14 14 14 14 15 15 15 15 16 16 16 15 14 13 12 11 11 11 11 11 11 12 12 12 13 13 13 13 14 14
16 16 16 15 15 14 14 14 15 15 15 16 16 15 15 15 16 16 16 16 16 16 16 16 15 14 13 12 12 12 12 12 12 12 12 12 13 13 13 14 15 15 16
17 17 16 16 16 16 16 16 16 16 17 17 17 16 16 16 16 16 16 16 17 16 16 16 15 13 13 13 13 13 13 14 14 13 13 13 14 15 15 15 16 16 17
19 18 18 17 17 17 17 17 18 18 18 18 18 18 17 17 18 18 17 17 17 17 17 15 15 14 14 13 13 13 14 14 15 15 14 14 15 15 16 17 17 17 18
21 20 19 18 18 18 18 18 19 19 19 19 19 18 18 18 19 18 17 17 17 17 17 16 16 15 14 14 14 14 15 16 16 16 15 16 16 16 17 18 18 19 19
22 21 20 19 19 19 19 19 19 19 19 19 19 19 19 19 18 19 18 18 18 18 17 17 17 16 15 15 15 16 16 17 17 17 17 18 18 18 19 19 20 20 21
21 21 20 20 20 20 20 20 20 20 20 20 20 20 19 19 19 19 18 17 17 17 18 18 17 17 17 17 17 17 18 18 18 19 19 19 20 20 21 22 22 23 23
22 22 22 21 21 21 22 21 21 21 21 21 20 20 20 20 20 20 18 18 18 17 18 18 18 18 18 18 18 19 19 20 20 20 20 20 21 22 23 23 24 25 25
24 24 23 23 22 22 22 21 22 22 22 22 21 21 21 21 20 20 19 20 20 19 19 18 18 19 19 19 19 20 20 21 22 22 22 22 23 24 24 24 25 25 26
25 25 24 24 23 23 22 22 23 23 23 22 22 21 21 21 21 21 21 21 21 21 20 20 20 21 20 20 21 21 22 23 23 23 23 23 24 24 25 26 26 27 27
26 25 25 25 25 24 24 24 24 24 23 22 22 23 23 23 23 22 21 21 22 22 22 22 22 22 22 22 23 23 23 23 24 23 24 24 25 25 26 26 27 27 28
25 25 26 25 26 26 25 25 25 25 25 25 24 24 24 24 24 23 22 22 22 22 22 23 23 23 23 24 24 24 24 24 24 25 25 25 26 27 27 27 28 28 29
26 25 25 25 25 26 26 25 25 25 25 26 25 25 25 24 24 24 24 24 24 24 24 24 24 24 24 25 25 25 25 25 26 26 27 27 27 28 28 28 29 29 29
26 25 25 25 25 25 25 26 26 26 26 26 26 25 25 24 24 24 25 25 25 25 25 25 26 25 25 25 25 25 25 26 27 27 27 27 27 28 28 28 29 29 29
27 26 25 26 26 26 26 26 26 26 27 27 26 26 26 25 25 26 26 25 25 25 25 25 26 25 25 25 25 26 26 27 27 28 28 28 28 28 28 28 29 29 29
Wind_Direction
354 354 353 356 356 353 351 350 349 348 347 347 348 347 346 345 348 352 355 352 349 344 335 331 327 324 322 321 324 320 313 310 307 312 306 292 292 296 294 288 282 285 289
348 352 348 349 351 351 352 351 351 348 347 346 347 345 347 351 352 352 356 354 348 342 340 334 329 323 320 316 316 315 308 304 304 302 299 291 294 295 292 288 280 279 286
341 343 343 341 342 344 347 347 347 347 345 345 347 348 345 343 346 348 347 346 346 341 332 334 335 329 324 319 322 325 318 310 306 300 297 298 296 296 298 296 287 285 290
332 337 339 338 337 338 339 342 344 347 344 341 344 344 342 340 340 342 341 342 342 342 338 335 335 336 331 326 324 323 319 315 314 315 308 303 301 301 297 288 286 285 291
318 327 335 336 334 334 336 336 336 340 340 339 340 342 339 336 335 337 337 339 338 335 333 328 326 331 331 325 324 320 322 319 318 316 311 313 311 310 305 298 295 289 290
306 319 325 330 332 333 334 336 337 338 339 340 339 338 336 335 335 335 334 336 340 338 333 327 329 327 327 324 325 322 324 320 314 315 316 315 312 306 308 311 307 304 298
298 307 315 319 325 329 333 334 336 335 334 334 336 337 335 334 334 335 336 336 338 340 337 336 333 331 328 328 323 319 320 320 313 308 309 311 311 307 305 303 305 306 304
287 291 298 306 316 323 328 332 333 332 333 333 334 334 334 333 332 331 331 332 335 337 336 333 333 329 327 323 320 315 316 317 314 307 304 303 305 306 307 306 304 303 303
286 290 295 299 305 311 317 322 327 328 327 327 330 331 331 331 331 330 328 327 328 330 331 330 328 326 325 326 320 315 315 313 310 308 306 305 307 307 307 307 306 302 300
278 282 290 294 299 304 308 312 316 321 321 321 322 325 327 325 324 324 323 324 324 324 324 323 322 321 321 318 318 314 313 313 312 310 308 307 309 309 310 308 307 308 303
274 279 283 288 294 298 300 304 309 313 315 317 317 318 319 320 320 320 321 321 321 321 322 322 323 320 319 320 315 314 313 310 307 307 304 304 304 304 305 304 306 307 306
271 275 277 283 289 295 298 302 305 308 310 312 312 313 313 312 313 313 314 315 316 317 317 318 319 316 314 314 314 311 308 307 304 301 298 297 300 302 301 302 305 306 308
268 271 273 281 286 291 294 298 301 305 307 307 307 307 310 310 309 308 308 310 312 314 313 314 315 311 308 307 308 311 308 308 307 302 299 298 298 299 301 305 308 309 307
266 269 271 278 284 289 290 292 296 301 304 306 305 302 304 306 306 305 305 306 310 311 310 312 312 306 303 302 302 306 308 307 308 304 300 299 298 300 301 302 305 306 306
266 268 271 276 282 287 288 290 293 297 299 301 303 300 299 302 303 301 302 303 305 306 306 307 307 303 300 299 301 304 306 307 309 307 301 300 299 300 301 302 304 305 306
266 267 269 274 278 281 284 288 292 295 298 301 301 300 299 301 300 296 298 302 302 302 302 303 305 302 300 298 298 301 304 308 310 309 304 302 301 300 300 301 303 304 305
264 266 268 271 275 278 281 286 291 293 297 300 300 300 300 301 300 295 295 298 299 299 298 300 301 302 300 300 299 299 300 304 306 306 304 301 300 300 300 301 301 303 303
263 265 268 269 272 275 279 283 286 291 295 297 299 299 301 303 303 302 296 295 298 298 297 297 299 303 304 301 300 299 299 302 303 303 302 302 302 301 299 299 301 302 302
265 267 268 269 272 274 278 282 285 288 292 295 296 298 300 301 301 301 298 297 298 300 299 299 300 302 302 301 300 298 299 301 302 301 302 303 302 301 301 301 301 301 301
265 266 267 269 272 274 276 279 284 287 289 290 292 294 297 300 301 300 298 297 296 298 299 299 301 302 302 303 305 303 301 301 300 300 300 300 301 302 302 303 302 301 301
265 266 266 268 271 272 273 278 282 287 287 288 291 293 295 297 299 297 295 294 293 294 297 298 299 299 300 301 302 302 302 302 301 301 300 300 301 303 303 303 303 303 302
263 264 266 266 269 272 276 279 281 285 286 287 292 292 293 294 294 294 292 292 292 293 294 295 297 298 298 299 300 302 302 303 303 303 302 301 301 303 303 304 303 303 303
265 266 265 266 268 271 275 278 281 284 286 288 290 292 292 291 292 293 290 290 291 293 293 294 295 296 297 298 298 299 299 301 303 303 303 302 301 301 302 303 303 303 303
266 266 265 266 269 271 275 278 280 281 283 286 289 292 293 293 291 289 289 290 291 292 291 291 293 293 294 295 296 297 298 301 303 303 303 302 301 301 302 303 303 303 304
265 265 264 266 269 271 273 276 279 281 283 286 289 291 294 293 292 290 290 291 290 290 291 290 291 291 292 293 296 297 299 300 302 302 302 302 302 303 303 303 304 305 305
262 262 264 266 267 270 273 275 278 281 283 286 288 289 291 290 290 291 292 291 291 290 290 290 290 292 293 294 295 297 298 301 302 301 301 302 303 304 304 304 304 305 305
Height
5921 5920 5919 5918 5918 5917 5916 5916 5915 5914 5913 5912 5912 5911 5910 5909 5908 5906 5905 5904 5903 5902 5901 5900 5899 5898 5898 5897 5897 5896 5896 5895 5895 5894 5894 5894 5893 5893 5892 5892 5892 5892 5893
5921 5920 5919 5919 5918 5917 5916 5916 5915 5914 5913 5912 5911 5911 5910 5909 5907 5906 5905 5904 5902 5902 5901 5899 5898 5897 5897 5897 5896 5895 5895 5894 5894 5893 5893 5892 5892 5891 5891 5890 5890 5891 5891
5921 5920 5919 5919 5918 5917 5916 5915 5914 5913 5912 5912 5911 5910 5909 5908 5907 5906 5905 5903 5902 5901 5900 5898 5897 5896 5896 5896 5895 5895 5894 5893 5893 5892 5892 5891 5891 5890 5889 5889 5889 5889 5890
5920 5920 5919 5918 5918 5917 5916 5915 5914 5913 5912 5911 5910 5909 5908 5908 5907 5906 5905 5903 5902 5901 5899 5898 5896 5896 5895 5895 5894 5894 5893 5892 5892 5891 5890 5890 5889 5889 5888 5888 5888 5887 5887
5920 5919 5919 5918 5917 5916 5916 5915 5914 5912 5912 5911 5910 5909 5908 5907 5906 5905 5904 5903 5901 5899 5898 5896 5895 5894 5894 5894 5893 5893 5892 5891 5891 5890 5889 5889 5888 5888 5887 5887 5886 5886 5885
5919 5919 5918 5918 5917 5916 5915 5914 5913 5912 5911 5910 5909 5908 5907 5906 5905 5904 5903 5902 5900 5898 5896 5895 5893 5893 5893 5892 5892 5891 5891 5890 5889 5889 5888 5887 5887 5886 5886 5885 5884 5884 5883
5919 5919 5918 5917 5917 5916 5915 5914 5913 5912 5911 5910 5908 5907 5906 5905 5904 5903 5902 5901 5899 5897 5895 5894 5893 5892 5892 5891 5890 5889 5889 5889 5888 5887 5887 5886 5885 5885 5884 5883 5882 5882 5881
5918 5918 5917 5916 5916 5915 5914 5913 5912 5911 5910 5909 5908 5907 5905 5904 5903 5902 5901 5900 5898 5896 5895 5894 5892 5891 5890 5889 5888 5888 5887 5887 5886 5885 5885 5884 5883 5882 5882 5881 5880 5879 5879
5916 5916 5916 5915 5915 5914 5913 5912 5911 5910 5909 5908 5907 5906 5904 5903 5902 5901 5899 5898 5897 5896 5894 5893 5891 5890 5888 5887 5886 5886 5885 5885 5884 5883 5883 5882 5881 5880 5879 5878 5877 5877 5876
5914 5914 5914 5914 5913 5913 5912 5911 5910 5909 5908 5907 5906 5905 5903 5902 5901 5899 5898 5897 5895 5894 5893 5892 5890 5888 5887 5885 5884 5884 5883 5883 5882 5881 5880 5879 5879 5878 5877 5876 5875 5874 5873
5912 5911 5912 5911 5911 5911 5910 5909 5908 5907 5906 5905 5904 5903 5902 5901 5899 5898 5896 5895 5894 5892 5891 5890 5888 5886 5885 5883 5882 5882 5881 5880 5880 5879 5878 5877 5877 5876 5874 5873 5872 5871 5870
5909 5909 5909 5909 5909 5908 5908 5907 5906 5905 5904 5903 5902 5901 5900 5899 5897 5896 5894 5893 5891 5890 5889 5887 5886 5884 5883 5882 5881 5879 5879 5878 5877 5876 5875 5875 5874 5873 5872 5870 5869 5868 5867
5906 5906 5906 5906 5906 5906 5905 5904 5903 5903 5902 5900 5899 5898 5897 5896 5895 5893 5892 5891 5889 5887 5886 5885 5883 5882 5881 5880 5878 5877 5876 5875 5874 5873 5872 5872 5871 5870 5869 5867 5866 5865 5863
5902 5903 5903 5903 5903 5903 5902 5901 5901 5900 5899 5897 5896 5894 5893 5893 5891 5890 5889 5887 5886 5885 5883 5882 5880 5879 5878 5877 5876 5875 5874 5873 5871 5870 5869 5868 5867 5866 5865 5864 5862 5861 5859
5899 5899 5900 5900 5899 5899 5899 5898 5897 5897 5896 5894 5893 5891 5890 5889 5888 5887 5885 5884 5883 5882 5880 5879 5877 5876 5875 5874 5873 5872 5871 5869 5868 5867 5865 5864 5863 5862 5861 5860 5858 5857 5855
5894 5895 5895 5896 5896 5895 5895 5894 5894 5893 5892 5891 5889 5888 5886 5885 5884 5883 5882 5881 5880 5879 5877 5876 5874 5873 5872 5871 5870 5869 5867 5866 5865 5863 5862 5861 5859 5858 5857 5855 5854 5852 5850
5889 5890 5891 5891 5892 5892 5891 5891 5890 5889 5888 5887 5886 5884 5883 5881 5880 5878 5878 5877 5876 5875 5874 5872 5871 5869 5868 5867 5866 5865 5864 5863 5861 5859 5858 5857 5855 5854 5852 5851 5849 5847 5845
5885 5885 5886 5887 5887 5887 5887 5886 5886 5885 5884 5883 5882 5880 5879 5878 5876 5875 5874 5873 5872 5871 5870 5868 5867 5866 5865 5864 5862 5861 5860 5859 5857 5855 5854 5852 5851 5849 5847 5845 5843 5841 5839
5880 5881 5881 5882 5883 5882 5882 5882 5881 5880 5879 5878 5877 5876 5875 5874 5872 5871 5870 5869 5868 5867 5866 5864 5863 5862 5861 5859 5858 5856 5855 5854 5852 5851 5849 5847 5846 5844 5842 5840 5838 5835 5833
5875 5876 5877 5877 5877 5877 5877 5877 5877 5876 5875 5874 5873 5872 5871 5870 5868 5867 5866 5865 5864 5863 5861 5860 5859 5858 5856 5855 5853 5852 5850 5849 5847 5845 5844 5842 5840 5838 5836 5834 5831 5829 5827
5870 5871 5871 5872 5872 5872 5872 5872 5872 5870 5869 5869 5868 5867 5866 5865 5864 5863 5862 5861 5859 5858 5857 5856 5855 5853 5852 5850 5849 5847 5845 5843 5841 5839 5838 5836 5834 5832 5830 5827 5825 5822 5820
5864 5865 5866 5866 5867 5866 5866 5867 5866 5865 5863 5863 5863 5863 5861 5860 5859 5858 5857 5856 5855 5853 5852 5851 5850 5848 5847 5845 5843 5842 5840 5838 5836 5834 5832 5830 5828 5826 5823 5821 5818 5816 5813
5858 5859 5860 5861 5861 5861 5861 5862 5861 5860 5859 5858 5858 5857 5856 5855 5854 5852 5851 5850 5849 5848 5847 5845 5844 5843 5841 5839 5837 5835 5834 5832 5830 5828 5826 5824 5821 5819 5817 5814 5811 5808 5806
5852 5852 5853 5854 5855 5855 5855 5855 5855 5855 5854 5853 5852 5851 5850 5849 5848 5846 5845 5844 5843 5842 5840 5839 5837 5836 5834 5833 5831 5829 5827 5825 5823 5821 5819 5817 5815 5812 5810 5807 5804 5801 5798
5845 5846 5848 5849 5849 5849 5849 5849 5849 5849 5848 5847 5846 5845 5844 5843 5842 5840 5839 5838 5836 5835 5834 5832 5831 5829 5828 5826 5825 5822 5821 5819 5817 5814 5812 5810 5808 5805 5802 5799 5796 5793 5790
5840 5840 5841 5842 5842 5843 5843 5843 5843 5843 5842 5841 5840 5839 5838 5837 5836 5834 5833 5831 5829 5829 5827 5825 5824 5822 5821 5820 5818 5816 5814 5812 5810 5807 5805 5803 5800 5797 5795 5792 5789 5786 5782